Wetterdaten: Montag, 03.06.2013
Datum Zeit Temp. A. Temp. A. min Temp. A. max Feuchte A. Luftdruck Regen Wind Richtung Richtung Sonnenschein ET Solar Taupunkt Windchill Windben Empfang
03.06.2013 00:00 10,4 C 0,0 C 0,0 C 63 % 1023,5 hPa 0,0 l/m 3,9 km/h (1 Bft) N-NW 335 0 min 0,000 mm 0 W/m 3,7 C 10,4 C 3,9 km/h (1 Bft) 0,00 %
03.06.2013 00:05 10,5 C 0,0 C 0,0 C 63 % 1023,5 hPa 0,0 l/m 11,5 km/h (2 Bft) N-NO 15 0 min 0,000 mm 0 W/m 3,8 C 10,5 C 11,5 km/h (2 Bft) 0,00 %
03.06.2013 00:10 10,3 C 0,0 C 0,0 C 63 % 1023,5 hPa 0,0 l/m 4,8 km/h (1 Bft) SW 220 0 min 0,000 mm 0 W/m 3,6 C 10,3 C 4,8 km/h (1 Bft) 0,00 %
03.06.2013 00:15 10,2 C 0,0 C 0,0 C 63 % 1023,5 hPa 0,0 l/m 4,8 km/h (1 Bft) NO 45 0 min 0,000 mm 0 W/m 3,5 C 10,2 C 4,8 km/h (1 Bft) 0,00 %
03.06.2013 00:20 10,2 C 0,0 C 0,0 C 63 % 1023,5 hPa 0,0 l/m 7,3 km/h (2 Bft) S-SW 195 0 min 0,000 mm 0 W/m 3,5 C 10,2 C 7,3 km/h (2 Bft) 0,00 %
03.06.2013 00:25 10,2 C 0,0 C 0,0 C 63 % 1022,5 hPa 0,0 l/m 7,3 km/h (2 Bft) N-NW 345 0 min 0,000 mm 0 W/m 3,5 C 10,2 C 7,3 km/h (2 Bft) 0,00 %
03.06.2013 00:30 10,2 C 0,0 C 0,0 C 63 % 1022,5 hPa 0,0 l/m 0,0 km/h (0 Bft) N-NW 340 0 min 0,000 mm 0 W/m 3,5 C 10,2 C 0,0 km/h (0 Bft) 0,00 %
03.06.2013 00:35 10,0 C 0,0 C 0,0 C 64 % 1022,5 hPa 0,0 l/m 8,8 km/h (2 Bft) NW 315 0 min 0,000 mm 0 W/m 3,5 C 8,8 C 8,8 km/h (2 Bft) 0,00 %
03.06.2013 00:40 10,1 C 0,0 C 0,0 C 63 % 1023,5 hPa 0,0 l/m 3,0 km/h (1 Bft) S-SW 210 0 min 0,000 mm 0 W/m 3,4 C 10,1 C 3,0 km/h (1 Bft) 0,00 %
03.06.2013 00:45 10,1 C 0,0 C 0,0 C 63 % 1023,5 hPa 0,0 l/m 7,3 km/h (2 Bft) W-NW 295 0 min 0,000 mm 0 W/m 3,4 C 10,1 C 7,3 km/h (2 Bft) 0,00 %
03.06.2013 00:50 9,9 C 0,0 C 0,0 C 64 % 1023,5 hPa 0,0 l/m 4,5 km/h (1 Bft) NO 45 0 min 0,000 mm 0 W/m 3,4 C 9,9 C 4,5 km/h (1 Bft) 0,00 %
03.06.2013 00:55 10,1 C 0,0 C 0,0 C 63 % 1023,5 hPa 0,0 l/m 7,3 km/h (2 Bft) W-NW 285 0 min 0,000 mm 0 W/m 3,4 C 10,1 C 7,3 km/h (2 Bft) 0,00 %
03.06.2013 01:00 10,0 C 0,0 C 0,0 C 63 % 1023,5 hPa 0,0 l/m 5,1 km/h (1 Bft) W-NW 300 0 min 0,000 mm 0 W/m 3,3 C 9,7 C 5,1 km/h (1 Bft) 0,00 %
03.06.2013 01:05 9,9 C 0,0 C 0,0 C 64 % 1023,5 hPa 0,0 l/m 5,1 km/h (1 Bft) N-NW 345 0 min 0,000 mm 0 W/m 3,4 C 9,6 C 5,1 km/h (1 Bft) 0,00 %
03.06.2013 01:10 9,9 C 0,0 C 0,0 C 64 % 1023,5 hPa 0,0 l/m 12,1 km/h (2 Bft) W 280 0 min 0,000 mm 0 W/m 3,4 C 8,2 C 12,1 km/h (2 Bft) 0,00 %
03.06.2013 01:15 10,0 C 0,0 C 0,0 C 63 % 1023,5 hPa 0,0 l/m 5,4 km/h (1 Bft) W 270 0 min 0,000 mm 0 W/m 3,3 C 9,6 C 5,4 km/h (1 Bft) 0,00 %
03.06.2013 01:20 10,0 C 0,0 C 0,0 C 63 % 1023,5 hPa 0,0 l/m 15,7 km/h (3 Bft) N-NO 20 0 min 0,000 mm 0 W/m 3,3 C 7,8 C 15,7 km/h (3 Bft) 0,00 %
03.06.2013 01:25 10,1 C 0,0 C 0,0 C 63 % 1023,5 hPa 0,0 l/m 15,1 km/h (3 Bft) NW 315 0 min 0,000 mm 0 W/m 3,4 C 10,1 C 15,1 km/h (3 Bft) 0,00 %
03.06.2013 01:30 10,0 C 0,0 C 0,0 C 63 % 1023,5 hPa 0,0 l/m 10,0 km/h (2 Bft) W 270 0 min 0,000 mm 0 W/m 3,3 C 8,6 C 10,0 km/h (2 Bft) 0,00 %
03.06.2013 01:35 9,9 C 0,0 C 0,0 C 63 % 1023,5 hPa 0,0 l/m 13,6 km/h (3 Bft) O-NO 70 0 min 0,000 mm 0 W/m 3,2 C 8,0 C 13,6 km/h (3 Bft) 0,00 %
03.06.2013 01:40 9,8 C 0,0 C 0,0 C 64 % 1023,5 hPa 0,0 l/m 7,0 km/h (2 Bft) W 275 0 min 0,000 mm 0 W/m 3,3 C 9,0 C 7,0 km/h (2 Bft) 0,00 %
03.06.2013 01:45 9,7 C 0,0 C 0,0 C 64 % 1023,5 hPa 0,0 l/m 8,2 km/h (2 Bft) NO 55 0 min 0,000 mm 0 W/m 3,2 C 8,6 C 8,2 km/h (2 Bft) 0,00 %
03.06.2013 01:50 9,5 C 0,0 C 0,0 C 65 % 1023,5 hPa 0,0 l/m 6,7 km/h (2 Bft) W-SW 250 0 min 0,000 mm 0 W/m 3,3 C 8,7 C 6,7 km/h (2 Bft) 0,00 %
03.06.2013 01:55 9,5 C 0,0 C 0,0 C 64 % 1023,5 hPa 0,0 l/m 13,6 km/h (3 Bft) W 270 0 min 0,000 mm 0 W/m 3,0 C 7,5 C 13,6 km/h (3 Bft) 0,00 %
03.06.2013 02:00 9,4 C 0,0 C 0,0 C 64 % 1023,5 hPa 0,0 l/m 7,3 km/h (2 Bft) N-NW 335 0 min 0,000 mm 0 W/m 2,9 C 8,5 C 7,3 km/h (2 Bft) 0,00 %
03.06.2013 02:05 9,4 C 0,0 C 0,0 C 65 % 1023,5 hPa 0,0 l/m 14,2 km/h (3 Bft) O 90 0 min 0,000 mm 0 W/m 3,2 C 7,3 C 14,2 km/h (3 Bft) 0,00 %
03.06.2013 02:10 9,3 C 0,0 C 0,0 C 64 % 1023,5 hPa 0,0 l/m 7,9 km/h (2 Bft) O-NO 65 0 min 0,000 mm 0 W/m 2,8 C 8,2 C 7,9 km/h (2 Bft) 0,00 %
03.06.2013 02:15 9,1 C 0,0 C 0,0 C 65 % 1023,5 hPa 0,0 l/m 7,6 km/h (2 Bft) S-SW 195 0 min 0,000 mm 0 W/m 2,9 C 8,0 C 7,6 km/h (2 Bft) 0,00 %
03.06.2013 02:20 9,0 C 0,0 C 0,0 C 65 % 1023,5 hPa 0,0 l/m 7,3 km/h (2 Bft) O 100 0 min 0,000 mm 0 W/m 2,8 C 8,0 C 7,3 km/h (2 Bft) 0,00 %
03.06.2013 02:25 8,9 C 0,0 C 0,0 C 66 % 1023,5 hPa 0,0 l/m 7,6 km/h (2 Bft) NO 40 0 min 0,000 mm 0 W/m 2,9 C 7,8 C 7,6 km/h (2 Bft) 0,00 %
03.06.2013 02:30 8,8 C 0,0 C 0,0 C 66 % 1023,5 hPa 0,0 l/m 7,0 km/h (2 Bft) O 95 0 min 0,000 mm 0 W/m 2,8 C 7,8 C 7,0 km/h (2 Bft) 0,00 %
03.06.2013 02:35 8,7 C 0,0 C 0,0 C 66 % 1023,5 hPa 0,0 l/m 4,5 km/h (1 Bft) SO 145 0 min 0,000 mm 0 W/m 2,7 C 8,7 C 4,5 km/h (1 Bft) 0,00 %
03.06.2013 02:40 8,7 C 0,0 C 0,0 C 66 % 1023,5 hPa 0,0 l/m 9,1 km/h (2 Bft) NO 40 0 min 0,000 mm 0 W/m 2,7 C 7,2 C 9,1 km/h (2 Bft) 0,00 %
03.06.2013 02:45 8,6 C 0,0 C 0,0 C 66 % 1023,5 hPa 0,0 l/m 9,4 km/h (2 Bft) W 265 0 min 0,000 mm 0 W/m 2,6 C 7,1 C 9,4 km/h (2 Bft) 0,00 %
03.06.2013 02:50 8,6 C 0,0 C 0,0 C 66 % 1023,5 hPa 0,0 l/m 6,7 km/h (2 Bft) NW 305 0 min 0,000 mm 0 W/m 2,6 C 7,7 C 6,7 km/h (2 Bft) 0,00 %
03.06.2013 02:55 8,7 C 0,0 C 0,0 C 66 % 1023,5 hPa 0,0 l/m 11,8 km/h (2 Bft) W-NW 295 0 min 0,000 mm 0 W/m 2,7 C 6,8 C 11,8 km/h (2 Bft) 0,00 %
03.06.2013 03:00 8,6 C 0,0 C 0,0 C 65 % 1023,5 hPa 0,0 l/m 10,9 km/h (2 Bft) W 280 0 min 0,000 mm 0 W/m 2,4 C 6,8 C 10,9 km/h (2 Bft) 0,00 %
03.06.2013 03:05 8,6 C 0,0 C 0,0 C 65 % 1023,5 hPa 0,0 l/m 12,1 km/h (2 Bft) N 0 0 min 0,000 mm 0 W/m 2,4 C 6,6 C 12,1 km/h (2 Bft) 0,00 %
03.06.2013 03:10 8,5 C 0,0 C 0,0 C 64 % 1023,5 hPa 0,0 l/m 10,3 km/h (2 Bft) N 350 0 min 0,000 mm 0 W/m 2,1 C 6,8 C 10,3 km/h (2 Bft) 0,00 %
03.06.2013 03:15 8,3 C 0,0 C 0,0 C 65 % 1023,5 hPa 0,0 l/m 11,5 km/h (2 Bft) NW 310 0 min 0,000 mm 0 W/m 2,1 C 6,3 C 11,5 km/h (2 Bft) 0,00 %
03.06.2013 03:20 8,4 C 0,0 C 0,0 C 64 % 1023,5 hPa 0,0 l/m 7,3 km/h (2 Bft) W-SW 250 0 min 0,000 mm 0 W/m 2,0 C 7,3 C 7,3 km/h (2 Bft) 0,00 %
03.06.2013 03:25 8,4 C 0,0 C 0,0 C 64 % 1023,5 hPa 0,0 l/m 13,3 km/h (3 Bft) N 350 0 min 0,000 mm 0 W/m 2,0 C 6,2 C 13,3 km/h (3 Bft) 0,00 %
03.06.2013 03:30 8,3 C 0,0 C 0,0 C 63 % 1023,5 hPa 0,0 l/m 5,1 km/h (1 Bft) N 350 0 min 0,000 mm 0 W/m 1,7 C 7,8 C 5,1 km/h (1 Bft) 0,00 %
03.06.2013 03:35 8,3 C 0,0 C 0,0 C 63 % 1023,5 hPa 0,0 l/m 10,9 km/h (2 Bft) N-NO 15 0 min 0,000 mm 0 W/m 1,7 C 6,4 C 10,9 km/h (2 Bft) 0,00 %
03.06.2013 03:40 8,2 C 0,0 C 0,0 C 63 % 1023,5 hPa 0,0 l/m 7,9 km/h (2 Bft) W 265 0 min 0,000 mm 0 W/m 1,6 C 6,9 C 7,9 km/h (2 Bft) 0,00 %
03.06.2013 03:45 8,0 C 0,0 C 0,0 C 64 % 1023,5 hPa 0,0 l/m 8,2 km/h (2 Bft) O-NO 70 0 min 0,000 mm 0 W/m 1,6 C 6,6 C 8,2 km/h (2 Bft) 0,00 %
03.06.2013 03:50 7,8 C 0,0 C 0,0 C 64 % 1023,5 hPa 0,0 l/m 4,8 km/h (1 Bft) SO 145 0 min 0,000 mm 0 W/m 1,4 C 7,3 C 4,8 km/h (1 Bft) 0,00 %
03.06.2013 03:55 7,6 C 0,0 C 0,0 C 65 % 1023,5 hPa 0,0 l/m 6,7 km/h (2 Bft) W-NW 290 0 min 0,000 mm 0 W/m 1,5 C 6,5 C 6,7 km/h (2 Bft) 0,00 %
03.06.2013 04:00 7,5 C 0,0 C 0,0 C 65 % 1023,5 hPa 0,0 l/m 4,2 km/h (1 Bft) NW 305 0 min 0,000 mm 0 W/m 1,4 C 7,5 C 4,2 km/h (1 Bft) 0,00 %
03.06.2013 04:05 7,3 C 0,0 C 0,0 C 67 % 1023,5 hPa 0,0 l/m 5,4 km/h (1 Bft) NW 315 0 min 0,000 mm 0 W/m 1,6 C 6,6 C 5,4 km/h (1 Bft) 0,00 %
03.06.2013 04:10 7,3 C 0,0 C 0,0 C 67 % 1023,5 hPa 0,0 l/m 9,1 km/h (2 Bft) N-NO 25 0 min 0,000 mm 0 W/m 1,6 C 5,6 C 9,1 km/h (2 Bft) 0,00 %
03.06.2013 04:15 7,2 C 0,0 C 0,0 C 67 % 1023,5 hPa 0,0 l/m 8,2 km/h (2 Bft) N 350 0 min 0,000 mm 0 W/m 1,5 C 5,7 C 8,2 km/h (2 Bft) 0,00 %
03.06.2013 04:20 7,1 C 0,0 C 0,0 C 67 % 1023,5 hPa 0,0 l/m 10,3 km/h (2 Bft) N-NW 330 0 min 0,000 mm 0 W/m 1,4 C 5,1 C 10,3 km/h (2 Bft) 0,00 %
03.06.2013 04:25 7,1 C 0,0 C 0,0 C 67 % 1022,5 hPa 0,0 l/m 7,3 km/h (2 Bft) NO 50 0 min 0,000 mm 0 W/m 1,4 C 5,8 C 7,3 km/h (2 Bft) 0,00 %
03.06.2013 04:30 7,1 C 0,0 C 0,0 C 67 % 1022,5 hPa 0,0 l/m 6,4 km/h (2 Bft) N-NW 345 0 min 0,000 mm 0 W/m 1,4 C 6,0 C 6,4 km/h (2 Bft) 0,00 %
03.06.2013 04:35 6,9 C 0,0 C 0,0 C 67 % 1022,5 hPa 0,0 l/m 2,7 km/h (1 Bft) W 275 0 min 0,000 mm 0 W/m 1,2 C 6,9 C 2,7 km/h (1 Bft) 0,00 %
03.06.2013 04:40 6,9 C 0,0 C 0,0 C 67 % 1022,5 hPa 0,0 l/m 4,8 km/h (1 Bft) NW 320 0 min 0,000 mm 0 W/m 1,2 C 6,3 C 4,8 km/h (1 Bft) 0,00 %
03.06.2013 04:45 6,9 C 0,0 C 0,0 C 67 % 1022,5 hPa 0,0 l/m 5,7 km/h (1 Bft) NO 40 0 min 0,000 mm 0 W/m 1,2 C 6,0 C 5,7 km/h (1 Bft) 0,00 %
03.06.2013 04:50 7,0 C 0,0 C 0,0 C 66 % 1022,5 hPa 0,0 l/m 5,4 km/h (1 Bft) NW 320 0 min 0,000 mm 0 W/m 1,1 C 6,2 C 5,4 km/h (1 Bft) 0,00 %
03.06.2013 04:55 7,0 C 0,0 C 0,0 C 66 % 1023,5 hPa 0,0 l/m 8,5 km/h (2 Bft) S-SW 200 0 min 0,000 mm 0 W/m 1,1 C 5,4 C 8,5 km/h (2 Bft) 0,00 %
03.06.2013 05:00 7,0 C 0,0 C 0,0 C 65 % 1023,5 hPa 0,0 l/m 7,6 km/h (2 Bft) N 0 0 min 0,000 mm 0 W/m 0,9 C 5,6 C 7,6 km/h (2 Bft) 0,00 %
03.06.2013 05:05 7,0 C 0,0 C 0,0 C 66 % 1023,5 hPa 0,0 l/m 5,4 km/h (1 Bft) W 265 0 min 0,000 mm 0 W/m 1,1 C 6,2 C 5,4 km/h (1 Bft) 0,00 %
03.06.2013 05:10 6,9 C 0,0 C 0,0 C 66 % 1023,5 hPa 0,0 l/m 2,7 km/h (1 Bft) NW 325 0 min 0,000 mm 0 W/m 1,0 C 6,9 C 2,7 km/h (1 Bft) 0,00 %
03.06.2013 05:15 6,9 C 0,0 C 0,0 C 66 % 1023,5 hPa 0,0 l/m 5,7 km/h (1 Bft) NW 325 0 min 0,000 mm 0 W/m 1,0 C 6,0 C 5,7 km/h (1 Bft) 0,00 %
03.06.2013 05:20 6,9 C 0,0 C 0,0 C 66 % 1023,5 hPa 0,0 l/m 6,7 km/h (2 Bft) NW 320 0 min 0,000 mm 0 W/m 1,0 C 5,7 C 6,7 km/h (2 Bft) 0,00 %
03.06.2013 05:25 6,8 C 0,0 C 0,0 C 67 % 1023,5 hPa 0,0 l/m 5,4 km/h (1 Bft) O-SO 110 0 min 0,000 mm 0 W/m 1,1 C 6,0 C 5,4 km/h (1 Bft) 0,00 %
03.06.2013 05:30 6,7 C 0,0 C 0,0 C 67 % 1023,5 hPa 0,0 l/m 0,0 km/h (0 Bft) NO 55 0 min 0,000 mm 0 W/m 1,0 C 6,7 C 0,0 km/h (0 Bft) 0,00 %
03.06.2013 05:35 6,7 C 0,0 C 0,0 C 67 % 1023,5 hPa 0,0 l/m 6,1 km/h (2 Bft) NW 315 0 min 0,000 mm 0 W/m 1,0 C 5,6 C 6,1 km/h (2 Bft) 0,00 %
03.06.2013 05:40 6,7 C 0,0 C 0,0 C 67 % 1023,5 hPa 0,0 l/m 8,2 km/h (2 Bft) NW 325 0 min 0,000 mm 0 W/m 1,0 C 5,1 C 8,2 km/h (2 Bft) 0,00 %
03.06.2013 05:45 6,7 C 0,0 C 0,0 C 67 % 1023,5 hPa 0,0 l/m 6,7 km/h (2 Bft) SW 215 0 min 0,000 mm 0 W/m 1,0 C 5,5 C 6,7 km/h (2 Bft) 0,00 %
03.06.2013 05:50 6,7 C 0,0 C 0,0 C 67 % 1023,5 hPa 0,0 l/m 6,4 km/h (2 Bft) W-SW 255 0 min 0,000 mm 0 W/m 1,0 C 5,6 C 6,4 km/h (2 Bft) 0,00 %
03.06.2013 05:55 6,7 C 0,0 C 0,0 C 67 % 1023,5 hPa 0,0 l/m 2,7 km/h (1 Bft) NW 320 0 min 0,000 mm 0 W/m 1,0 C 6,7 C 2,7 km/h (1 Bft) 0,00 %
03.06.2013 06:00 6,7 C 0,0 C 0,0 C 68 % 1023,5 hPa 0,0 l/m 8,8 km/h (2 Bft) W-NW 295 0 min 0,000 mm 0 W/m 1,2 C 4,9 C 8,8 km/h (2 Bft) 0,00 %
03.06.2013 06:05 6,7 C 0,0 C 0,0 C 67 % 1023,5 hPa 0,0 l/m 5,1 km/h (1 Bft) N-NW 330 0 min 0,000 mm 0 W/m 1,0 C 6,0 C 5,1 km/h (1 Bft) 0,00 %
03.06.2013 06:10 6,7 C 0,0 C 0,0 C 67 % 1023,5 hPa 0,0 l/m 8,8 km/h (2 Bft) N 5 0 min 0,000 mm 0 W/m 1,0 C 4,9 C 8,8 km/h (2 Bft) 0,00 %
03.06.2013 06:15 6,7 C 0,0 C 0,0 C 68 % 1023,5 hPa 0,0 l/m 2,1 km/h (1 Bft) W-NW 300 0 min 0,000 mm 0 W/m 1,2 C 6,7 C 2,1 km/h (1 Bft) 0,00 %
03.06.2013 06:20 6,7 C 0,0 C 0,0 C 67 % 1023,5 hPa 0,0 l/m 10,0 km/h (2 Bft) O-SO 110 0 min 0,000 mm 0 W/m 1,0 C 4,7 C 10,0 km/h (2 Bft) 0,00 %
03.06.2013 06:25 6,8 C 0,0 C 0,0 C 68 % 1023,5 hPa 0,0 l/m 5,4 km/h (1 Bft) S 175 0 min 0,000 mm 0 W/m 1,3 C 6,0 C 5,4 km/h (1 Bft) 0,00 %
03.06.2013 06:30 6,7 C 0,0 C 0,0 C 68 % 1023,5 hPa 0,0 l/m 9,4 km/h (2 Bft) NW 305 0 min 0,000 mm 0 W/m 1,2 C 4,8 C 9,4 km/h (2 Bft) 0,00 %
03.06.2013 06:35 6,9 C 0,0 C 0,0 C 68 % 1023,5 hPa 0,0 l/m 11,5 km/h (2 Bft) N-NW 330 0 min 0,000 mm 0 W/m 1,4 C 4,6 C 11,5 km/h (2 Bft) 0,00 %
03.06.2013 06:40 6,8 C 0,0 C 0,0 C 68 % 1023,5 hPa 0,0 l/m 7,6 km/h (2 Bft) NO 35 0 min 0,000 mm 0 W/m 1,3 C 5,3 C 7,6 km/h (2 Bft) 0,00 %
03.06.2013 06:45 6,9 C 0,0 C 0,0 C 68 % 1023,5 hPa 0,0 l/m 13,3 km/h (3 Bft) NO 50 0 min 0,000 mm 0 W/m 1,4 C 4,3 C 13,3 km/h (3 Bft) 0,00 %
03.06.2013 06:50 6,8 C 0,0 C 0,0 C 68 % 1023,5 hPa 0,0 l/m 15,4 km/h (3 Bft) SW 235 0 min 0,000 mm 0 W/m 1,3 C 3,9 C 15,4 km/h (3 Bft) 0,00 %
03.06.2013 06:55 7,0 C 0,0 C 0,0 C 68 % 1023,5 hPa 0,0 l/m 11,5 km/h (2 Bft) SW 235 0 min 0,000 mm 0 W/m 1,5 C 4,8 C 11,5 km/h (2 Bft) 0,00 %
03.06.2013 07:00 7,0 C 0,0 C 0,0 C 68 % 1023,5 hPa 0,0 l/m 10,3 km/h (2 Bft) O-SO 110 0 min 0,000 mm 0 W/m 1,5 C 5,0 C 10,3 km/h (2 Bft) 0,00 %
03.06.2013 07:05 7,1 C 0,0 C 0,0 C 67 % 1023,5 hPa 0,0 l/m 10,9 km/h (2 Bft) N-NO 25 0 min 0,000 mm 0 W/m 1,4 C 5,0 C 10,9 km/h (2 Bft) 0,00 %
03.06.2013 07:10 7,3 C 0,0 C 0,0 C 67 % 1023,5 hPa 0,0 l/m 16,0 km/h (3 Bft) NO 50 0 min 0,000 mm 0 W/m 1,6 C 4,4 C 16,0 km/h (3 Bft) 0,00 %
03.06.2013 07:15 7,4 C 0,0 C 0,0 C 67 % 1023,5 hPa 0,0 l/m 5,1 km/h (1 Bft) N-NW 335 0 min 0,000 mm 0 W/m 1,7 C 6,8 C 5,1 km/h (1 Bft) 0,00 %
03.06.2013 07:20 7,5 C 0,0 C 0,0 C 67 % 1023,5 hPa 0,0 l/m 8,2 km/h (2 Bft) N-NW 330 0 min 0,000 mm 0 W/m 1,8 C 6,0 C 8,2 km/h (2 Bft) 0,00 %
03.06.2013 07:25 7,6 C 0,0 C 0,0 C 67 % 1023,5 hPa 0,0 l/m 9,1 km/h (2 Bft) SO 125 0 min 0,000 mm 0 W/m 1,9 C 5,9 C 9,1 km/h (2 Bft) 0,00 %
03.06.2013 07:30 7,8 C 0,0 C 0,0 C 67 % 1023,5 hPa 0,0 l/m 15,1 km/h (3 Bft) O-SO 120 0 min 0,000 mm 0 W/m 2,1 C 5,2 C 15,1 km/h (3 Bft) 0,00 %
03.06.2013 07:35 7,8 C 0,0 C 0,0 C 67 % 1023,5 hPa 0,0 l/m 8,2 km/h (2 Bft) N 350 0 min 0,000 mm 0 W/m 2,1 C 6,4 C 8,2 km/h (2 Bft) 0,00 %
03.06.2013 07:40 7,8 C 0,0 C 0,0 C 67 % 1023,5 hPa 0,0 l/m 10,9 km/h (2 Bft) N 0 0 min 0,000 mm 0 W/m 2,1 C 5,8 C 10,9 km/h (2 Bft) 0,00 %
03.06.2013 07:45 7,8 C 0,0 C 0,0 C 67 % 1023,5 hPa 0,0 l/m 9,4 km/h (2 Bft) NO 35 0 min 0,000 mm 0 W/m 2,1 C 6,1 C 9,4 km/h (2 Bft) 0,00 %
03.06.2013 07:50 7,7 C 0,0 C 0,0 C 67 % 1023,5 hPa 0,0 l/m 14,5 km/h (3 Bft) N 355 0 min 0,000 mm 0 W/m 2,0 C 5,1 C 14,5 km/h (3 Bft) 0,00 %
03.06.2013 07:55 7,8 C 0,0 C 0,0 C 67 % 1023,5 hPa 0,0 l/m 9,7 km/h (2 Bft) N 5 0 min 0,000 mm 0 W/m 2,1 C 6,1 C 9,7 km/h (2 Bft) 0,00 %
03.06.2013 08:00 8,1 C 0,0 C 0,0 C 67 % 1023,5 hPa 0,0 l/m 7,0 km/h (2 Bft) SO 125 0 min 0,000 mm 0 W/m 2,3 C 7,0 C 7,0 km/h (2 Bft) 0,00 %
03.06.2013 08:05 8,2 C 0,0 C 0,0 C 66 % 1023,5 hPa 0,0 l/m 10,6 km/h (2 Bft) NO 45 0 min 0,000 mm 0 W/m 2,2 C 6,4 C 10,6 km/h (2 Bft) 0,00 %
03.06.2013 08:10 8,3 C 0,0 C 0,0 C 66 % 1023,5 hPa 0,0 l/m 7,9 km/h (2 Bft) N 350 0 min 0,000 mm 0 W/m 2,3 C 7,0 C 7,9 km/h (2 Bft) 0,00 %
03.06.2013 08:15 8,5 C 0,0 C 0,0 C 66 % 1023,5 hPa 0,0 l/m 12,7 km/h (3 Bft) W 265 0 min 0,000 mm 0 W/m 2,5 C 6,4 C 12,7 km/h (3 Bft) 0,00 %
03.06.2013 08:20 8,6 C 0,0 C 0,0 C 65 % 1023,5 hPa 0,0 l/m 15,1 km/h (3 Bft) W 270 0 min 0,000 mm 0 W/m 2,4 C 6,2 C 15,1 km/h (3 Bft) 0,00 %
03.06.2013 08:25 8,7 C 0,0 C 0,0 C 65 % 1023,5 hPa 0,0 l/m 11,8 km/h (2 Bft) N-NO 30 0 min 0,000 mm 0 W/m 2,5 C 6,8 C 11,8 km/h (2 Bft) 0,00 %
03.06.2013 08:30 8,9 C 0,0 C 0,0 C 64 % 1023,5 hPa 0,0 l/m 10,3 km/h (2 Bft) O 100 0 min 0,000 mm 0 W/m 2,5 C 7,3 C 10,3 km/h (2 Bft) 0,00 %
03.06.2013 08:35 9,3 C 0,0 C 0,0 C 64 % 1023,5 hPa 0,0 l/m 9,7 km/h (2 Bft) N-NW 340 0 min 0,000 mm 0 W/m 2,8 C 7,8 C 9,7 km/h (2 Bft) 0,00 %
03.06.2013 08:40 9,1 C 0,0 C 0,0 C 64 % 1023,5 hPa 0,0 l/m 17,6 km/h (3 Bft) O-SO 105 0 min 0,000 mm 0 W/m 2,7 C 6,5 C 17,6 km/h (3 Bft) 0,00 %
03.06.2013 08:45 9,3 C 0,0 C 0,0 C 64 % 1023,5 hPa 0,0 l/m 19,4 km/h (3 Bft) O 95 0 min 0,000 mm 0 W/m 2,8 C 6,6 C 19,4 km/h (3 Bft) 0,00 %
03.06.2013 08:50 9,3 C 0,0 C 0,0 C 64 % 1023,5 hPa 0,0 l/m 11,5 km/h (2 Bft) S-SO 165 0 min 0,000 mm 0 W/m 2,8 C 7,5 C 11,5 km/h (2 Bft) 0,00 %
03.06.2013 08:55 9,2 C 0,0 C 0,0 C 64 % 1024,5 hPa 0,0 l/m 9,4 km/h (2 Bft) S-SO 155 0 min 0,000 mm 0 W/m 2,8 C 7,8 C 9,4 km/h (2 Bft) 0,00 %
03.06.2013 09:00 9,1 C 0,0 C 0,0 C 64 % 1024,5 hPa 0,0 l/m 11,2 km/h (2 Bft) O-NO 75 0 min 0,000 mm 0 W/m 2,7 C 7,4 C 11,2 km/h (2 Bft) 0,00 %
03.06.2013 09:05 9,0 C 0,0 C 0,0 C 64 % 1024,5 hPa 0,0 l/m 13,0 km/h (3 Bft) W 280 0 min 0,000 mm 0 W/m 2,6 C 7,0 C 13,0 km/h (3 Bft) 0,00 %
03.06.2013 09:10 9,1 C 0,0 C 0,0 C 64 % 1023,5 hPa 0,0 l/m 12,7 km/h (3 Bft) O 80 0 min 0,000 mm 0 W/m 2,7 C 7,1 C 12,7 km/h (3 Bft) 0,00 %
03.06.2013 09:15 9,1 C 0,0 C 0,0 C 64 % 1023,5 hPa 0,0 l/m 14,2 km/h (3 Bft) W-SW 245 0 min 0,000 mm 0 W/m 2,7 C 6,9 C 14,2 km/h (3 Bft) 0,00 %
03.06.2013 09:20 9,2 C 0,0 C 0,0 C 64 % 1023,5 hPa 0,0 l/m 14,2 km/h (3 Bft) W-NW 290 0 min 0,000 mm 0 W/m 2,8 C 7,0 C 14,2 km/h (3 Bft) 0,00 %
03.06.2013 09:25 9,6 C 0,0 C 0,0 C 63 % 1024,5 hPa 0,0 l/m 10,6 km/h (2 Bft) N 0 0 min 0,000 mm 0 W/m 2,9 C 8,1 C 10,6 km/h (2 Bft) 0,00 %
03.06.2013 09:30 9,7 C 0,0 C 0,0 C 62 % 1024,5 hPa 0,0 l/m 8,8 km/h (2 Bft) N-NO 30 0 min 0,000 mm 0 W/m 2,8 C 8,5 C 8,8 km/h (2 Bft) 0,00 %
03.06.2013 09:35 9,6 C 0,0 C 0,0 C 62 % 1024,5 hPa 0,0 l/m 15,7 km/h (3 Bft) NO 55 0 min 0,000 mm 0 W/m 2,7 C 7,3 C 15,7 km/h (3 Bft) 0,00 %
03.06.2013 09:40 9,8 C 0,0 C 0,0 C 63 % 1024,5 hPa 0,0 l/m 16,3 km/h (3 Bft) S-SO 165 0 min 0,000 mm 0 W/m 3,1 C 7,5 C 16,3 km/h (3 Bft) 0,00 %
03.06.2013 09:45 9,7 C 0,0 C 0,0 C 62 % 1024,5 hPa 0,0 l/m 17,9 km/h (3 Bft) O-SO 115 0 min 0,000 mm 0 W/m 2,8 C 7,2 C 17,9 km/h (3 Bft) 0,00 %
03.06.2013 09:50 9,9 C 0,0 C 0,0 C 62 % 1024,5 hPa 0,0 l/m 15,1 km/h (3 Bft) W-NW 290 0 min 0,000 mm 0 W/m 3,0 C 7,8 C 15,1 km/h (3 Bft) 0,00 %
03.06.2013 09:55 10,0 C 0,0 C 0,0 C 61 % 1024,5 hPa 0,0 l/m 13,9 km/h (3 Bft) N-NO 25 0 min 0,000 mm 0 W/m 2,8 C 8,1 C 13,9 km/h (3 Bft) 0,00 %
03.06.2013 10:00 10,0 C 0,0 C 0,0 C 62 % 1024,5 hPa 0,0 l/m 12,7 km/h (3 Bft) SO 125 0 min 0,000 mm 0 W/m 3,1 C 8,2 C 12,7 km/h (3 Bft) 0,00 %
03.06.2013 10:05 10,0 C 0,0 C 0,0 C 62 % 1024,5 hPa 0,0 l/m 7,6 km/h (2 Bft) NW 325 0 min 0,000 mm 0 W/m 3,1 C 9,1 C 7,6 km/h (2 Bft) 0,00 %
03.06.2013 10:10 10,0 C 0,0 C 0,0 C 61 % 1024,5 hPa 0,0 l/m 10,3 km/h (2 Bft) W 265 0 min 0,000 mm 0 W/m 2,8 C 8,6 C 10,3 km/h (2 Bft) 0,00 %
03.06.2013 10:15 10,2 C 0,0 C 0,0 C 62 % 1024,5 hPa 0,0 l/m 10,9 km/h (2 Bft) N-NW 330 0 min 0,000 mm 0 W/m 3,3 C 10,2 C 10,9 km/h (2 Bft) 0,00 %
03.06.2013 10:20 10,1 C 0,0 C 0,0 C 60 % 1024,5 hPa 0,0 l/m 12,4 km/h (3 Bft) N 350 0 min 0,000 mm 0 W/m 2,7 C 10,1 C 12,4 km/h (3 Bft) 0,00 %
03.06.2013 10:25 10,4 C 0,0 C 0,0 C 60 % 1024,5 hPa 0,0 l/m 10,6 km/h (2 Bft) NO 50 0 min 0,000 mm 0 W/m 3,0 C 10,4 C 10,6 km/h (2 Bft) 0,00 %
03.06.2013 10:30 10,6 C 0,0 C 0,0 C 60 % 1024,5 hPa 0,0 l/m 10,9 km/h (2 Bft) NO 45 0 min 0,000 mm 0 W/m 3,2 C 10,6 C 10,9 km/h (2 Bft) 0,00 %
03.06.2013 10:35 10,9 C 0,0 C 0,0 C 59 % 1024,5 hPa 0,0 l/m 8,5 km/h (2 Bft) W-NW 295 0 min 0,000 mm 0 W/m 3,2 C 10,9 C 8,5 km/h (2 Bft) 0,00 %
03.06.2013 10:40 11,2 C 0,0 C 0,0 C 59 % 1023,5 hPa 0,0 l/m 7,3 km/h (2 Bft) NO 50 0 min 0,000 mm 0 W/m 3,5 C 11,2 C 7,3 km/h (2 Bft) 0,00 %
03.06.2013 10:45 11,3 C 0,0 C 0,0 C 59 % 1023,5 hPa 0,0 l/m 12,1 km/h (2 Bft) SW 215 0 min 0,000 mm 0 W/m 3,6 C 11,3 C 12,1 km/h (2 Bft) 0,00 %
03.06.2013 10:50 11,6 C 0,0 C 0,0 C 58 % 1023,5 hPa 0,0 l/m 7,0 km/h (2 Bft) N 0 0 min 0,000 mm 0 W/m 3,6 C 11,6 C 7,0 km/h (2 Bft) 0,00 %
03.06.2013 10:55 12,1 C 0,0 C 0,0 C 57 % 1024,5 hPa 0,0 l/m 8,2 km/h (2 Bft) SW 235 0 min 0,000 mm 0 W/m 3,8 C 12,1 C 8,2 km/h (2 Bft) 0,00 %
03.06.2013 11:00 12,3 C 0,0 C 0,0 C 57 % 1024,5 hPa 0,0 l/m 7,9 km/h (2 Bft) N 10 0 min 0,000 mm 0 W/m 4,0 C 12,3 C 7,9 km/h (2 Bft) 0,00 %
03.06.2013 11:05 12,3 C 0,0 C 0,0 C 57 % 1024,5 hPa 0,0 l/m 16,6 km/h (3 Bft) S-SW 200 0 min 0,000 mm 0 W/m 4,0 C 12,3 C 16,6 km/h (3 Bft) 0,00 %
03.06.2013 11:10 12,4 C 0,0 C 0,0 C 55 % 1023,5 hPa 0,0 l/m 10,3 km/h (2 Bft) O 90 0 min 0,000 mm 0 W/m 3,6 C 12,4 C 10,3 km/h (2 Bft) 0,00 %
03.06.2013 11:15 12,2 C 0,0 C 0,0 C 55 % 1023,5 hPa 0,0 l/m 10,6 km/h (2 Bft) NW 315 0 min 0,000 mm 0 W/m 3,4 C 12,2 C 10,6 km/h (2 Bft) 0,00 %
03.06.2013 11:20 12,2 C 0,0 C 0,0 C 56 % 1023,5 hPa 0,0 l/m 10,3 km/h (2 Bft) N-NW 330 0 min 0,000 mm 0 W/m 3,7 C 12,2 C 10,3 km/h (2 Bft) 0,00 %
03.06.2013 11:25 12,8 C 0,0 C 0,0 C 55 % 1023,5 hPa 0,0 l/m 11,2 km/h (2 Bft) O 80 0 min 0,000 mm 0 W/m 4,0 C 12,8 C 11,2 km/h (2 Bft) 0,00 %
03.06.2013 11:30 13,0 C 0,0 C 0,0 C 55 % 1023,5 hPa 0,0 l/m 6,1 km/h (2 Bft) N-NO 25 0 min 0,000 mm 0 W/m 4,2 C 13,0 C 6,1 km/h (2 Bft) 0,00 %
03.06.2013 11:35 12,7 C 0,0 C 0,0 C 53 % 1023,5 hPa 0,0 l/m 14,5 km/h (3 Bft) NW 315 0 min 0,000 mm 0 W/m 3,4 C 12,7 C 14,5 km/h (3 Bft) 0,00 %
03.06.2013 11:40 12,9 C 0,0 C 0,0 C 52 % 1023,5 hPa 0,0 l/m 8,5 km/h (2 Bft) N 355 0 min 0,000 mm 0 W/m 3,3 C 12,9 C 8,5 km/h (2 Bft) 0,00 %
03.06.2013 11:45 13,0 C 0,0 C 0,0 C 51 % 1023,5 hPa 0,0 l/m 9,7 km/h (2 Bft) W-NW 300 0 min 0,000 mm 0 W/m 3,1 C 13,0 C 9,7 km/h (2 Bft) 0,00 %
03.06.2013 11:50 13,0 C 0,0 C 0,0 C 51 % 1023,5 hPa 0,0 l/m 7,6 km/h (2 Bft) NO 40 0 min 0,000 mm 0 W/m 3,1 C 13,0 C 7,6 km/h (2 Bft) 0,00 %
03.06.2013 11:55 13,4 C 0,0 C 0,0 C 51 % 1023,5 hPa 0,0 l/m 8,5 km/h (2 Bft) O 95 0 min 0,000 mm 0 W/m 3,5 C 13,4 C 8,5 km/h (2 Bft) 0,00 %
03.06.2013 12:00 13,3 C 0,0 C 0,0 C 51 % 1023,5 hPa 0,0 l/m 9,7 km/h (2 Bft) NO 40 0 min 0,000 mm 0 W/m 3,4 C 13,3 C 9,7 km/h (2 Bft) 0,00 %
03.06.2013 12:05 13,4 C 0,0 C 0,0 C 50 % 1023,5 hPa 0,0 l/m 10,6 km/h (2 Bft) NO 50 0 min 0,000 mm 0 W/m 3,2 C 13,4 C 10,6 km/h (2 Bft) 0,00 %
03.06.2013 12:10 13,8 C 0,0 C 0,0 C 51 % 1023,5 hPa 0,0 l/m 10,3 km/h (2 Bft) W 265 0 min 0,000 mm 0 W/m 3,8 C 13,8 C 10,3 km/h (2 Bft) 0,00 %
03.06.2013 12:15 14,0 C 0,0 C 0,0 C 50 % 1023,5 hPa 0,0 l/m 8,8 km/h (2 Bft) W-NW 290 0 min 0,000 mm 0 W/m 3,7 C 14,0 C 8,8 km/h (2 Bft) 0,00 %
03.06.2013 12:20 13,8 C 0,0 C 0,0 C 49 % 1023,5 hPa 0,0 l/m 10,9 km/h (2 Bft) O-NO 65 0 min 0,000 mm 0 W/m 3,3 C 13,8 C 10,9 km/h (2 Bft) 0,00 %
03.06.2013 12:25 14,3 C 0,0 C 0,0 C 48 % 1023,5 hPa 0,0 l/m 7,9 km/h (2 Bft) NO 40 0 min 0,000 mm 0 W/m 3,4 C 14,3 C 7,9 km/h (2 Bft) 0,00 %
03.06.2013 12:30 14,1 C 0,0 C 0,0 C 47 % 1023,5 hPa 0,0 l/m 10,3 km/h (2 Bft) NW 310 0 min 0,000 mm 0 W/m 3,0 C 14,1 C 10,3 km/h (2 Bft) 0,00 %
03.06.2013 12:35 13,4 C 0,0 C 0,0 C 49 % 1023,5 hPa 0,0 l/m 12,7 km/h (3 Bft) W-SW 250 0 min 0,000 mm 0 W/m 2,9 C 13,4 C 12,7 km/h (3 Bft) 0,00 %
03.06.2013 12:40 13,3 C 0,0 C 0,0 C 50 % 1023,5 hPa 0,0 l/m 12,1 km/h (2 Bft) O-SO 120 0 min 0,000 mm 0 W/m 3,1 C 13,3 C 12,1 km/h (2 Bft) 0,00 %
03.06.2013 12:45 13,4 C 0,0 C 0,0 C 51 % 1023,5 hPa 0,0 l/m 10,3 km/h (2 Bft) N-NW 335 0 min 0,000 mm 0 W/m 3,5 C 13,4 C 10,3 km/h (2 Bft) 0,00 %
03.06.2013 12:50 13,2 C 0,0 C 0,0 C 50 % 1023,5 hPa 0,0 l/m 13,6 km/h (3 Bft) NW 310 0 min 0,000 mm 0 W/m 3,0 C 13,2 C 13,6 km/h (3 Bft) 0,00 %
03.06.2013 12:55 13,5 C 0,0 C 0,0 C 49 % 1023,5 hPa 0,0 l/m 8,2 km/h (2 Bft) NW 320 0 min 0,000 mm 0 W/m 3,0 C 13,5 C 8,2 km/h (2 Bft) 0,00 %
03.06.2013 13:00 13,8 C 0,0 C 0,0 C 50 % 1023,5 hPa 0,0 l/m 12,1 km/h (2 Bft) N-NO 30 0 min 0,000 mm 0 W/m 3,6 C 13,8 C 12,1 km/h (2 Bft) 0,00 %
03.06.2013 13:05 14,6 C 0,0 C 0,0 C 50 % 1023,5 hPa 0,0 l/m 6,4 km/h (2 Bft) NW 305 0 min 0,000 mm 0 W/m 4,3 C 14,6 C 6,4 km/h (2 Bft) 0,00 %
03.06.2013 13:10 14,4 C 0,0 C 0,0 C 50 % 1023,5 hPa 0,0 l/m 9,4 km/h (2 Bft) O 95 0 min 0,000 mm 0 W/m 4,1 C 14,4 C 9,4 km/h (2 Bft) 0,00 %
03.06.2013 13:15 14,5 C 0,0 C 0,0 C 50 % 1023,5 hPa 0,0 l/m 12,7 km/h (3 Bft) O 95 0 min 0,000 mm 0 W/m 4,2 C 14,5 C 12,7 km/h (3 Bft) 0,00 %
03.06.2013 13:20 14,5 C 0,0 C 0,0 C 49 % 1023,5 hPa 0,0 l/m 19,4 km/h (3 Bft) W 280 0 min 0,000 mm 0 W/m 3,9 C 14,5 C 19,4 km/h (3 Bft) 0,00 %
03.06.2013 13:25 14,4 C 0,0 C 0,0 C 50 % 1023,5 hPa 0,0 l/m 10,0 km/h (2 Bft) W 275 0 min 0,000 mm 0 W/m 4,1 C 14,4 C 10,0 km/h (2 Bft) 0,00 %
03.06.2013 13:30 15,1 C 0,0 C 0,0 C 50 % 1023,5 hPa 0,0 l/m 10,3 km/h (2 Bft) N-NO 20 0 min 0,000 mm 0 W/m 4,8 C 15,1 C 10,3 km/h (2 Bft) 0,00 %
03.06.2013 13:35 15,3 C 0,0 C 0,0 C 48 % 1023,5 hPa 0,0 l/m 7,6 km/h (2 Bft) O-NO 70 0 min 0,000 mm 0 W/m 4,4 C 15,3 C 7,6 km/h (2 Bft) 0,00 %
03.06.2013 13:40 15,3 C 0,0 C 0,0 C 48 % 1023,5 hPa 0,0 l/m 17,9 km/h (3 Bft) N-NO 20 0 min 0,000 mm 0 W/m 4,4 C 15,3 C 17,9 km/h (3 Bft) 0,00 %
03.06.2013 13:45 15,2 C 0,0 C 0,0 C 50 % 1023,5 hPa 0,0 l/m 12,1 km/h (2 Bft) NW 310 0 min 0,000 mm 0 W/m 4,8 C 15,2 C 12,1 km/h (2 Bft) 0,00 %
03.06.2013 13:50 15,9 C 0,0 C 0,0 C 48 % 1023,5 hPa 0,0 l/m 8,8 km/h (2 Bft) S-SW 195 0 min 0,000 mm 0 W/m 4,9 C 15,9 C 8,8 km/h (2 Bft) 0,00 %
03.06.2013 13:55 15,6 C 0,0 C 0,0 C 49 % 1023,5 hPa 0,0 l/m 13,6 km/h (3 Bft) S-SW 210 0 min 0,000 mm 0 W/m 4,9 C 15,6 C 13,6 km/h (3 Bft) 0,00 %
03.06.2013 14:00 15,8 C 0,0 C 0,0 C 50 % 1023,5 hPa 0,0 l/m 14,2 km/h (3 Bft) N-NW 330 0 min 0,000 mm 0 W/m 5,4 C 15,8 C 14,2 km/h (3 Bft) 0,00 %
03.06.2013 14:05 16,3 C 0,0 C 0,0 C 48 % 1023,5 hPa 0,0 l/m 8,2 km/h (2 Bft) NW 310 0 min 0,000 mm 0 W/m 5,3 C 16,3 C 8,2 km/h (2 Bft) 0,00 %
03.06.2013 14:10 17,0 C 0,0 C 0,0 C 46 % 1022,5 hPa 0,0 l/m 8,8 km/h (2 Bft) N 0 0 min 0,000 mm 0 W/m 5,3 C 17,0 C 8,8 km/h (2 Bft) 0,00 %
03.06.2013 14:15 16,5 C 0,0 C 0,0 C 47 % 1022,5 hPa 0,0 l/m 11,8 km/h (2 Bft) N 0 0 min 0,000 mm 0 W/m 5,2 C 16,5 C 11,8 km/h (2 Bft) 0,00 %
03.06.2013 14:20 17,4 C 0,0 C 0,0 C 49 % 1022,5 hPa 0,0 l/m 7,6 km/h (2 Bft) N-NO 15 0 min 0,000 mm 0 W/m 6,6 C 17,4 C 7,6 km/h (2 Bft) 0,00 %
03.06.2013 14:25 17,7 C 0,0 C 0,0 C 45 % 1022,5 hPa 0,0 l/m 19,4 km/h (3 Bft) O 100 0 min 0,000 mm 0 W/m 5,6 C 17,7 C 19,4 km/h (3 Bft) 0,00 %
03.06.2013 14:30 17,7 C 0,0 C 0,0 C 45 % 1022,5 hPa 0,0 l/m 10,6 km/h (2 Bft) N 355 0 min 0,000 mm 0 W/m 5,6 C 17,7 C 10,6 km/h (2 Bft) 0,00 %
03.06.2013 14:35 17,4 C 0,0 C 0,0 C 47 % 1022,5 hPa 0,0 l/m 9,7 km/h (2 Bft) O 85 0 min 0,000 mm 0 W/m 6,0 C 17,4 C 9,7 km/h (2 Bft) 0,00 %
03.06.2013 14:40 17,0 C 0,0 C 0,0 C 46 % 1023,5 hPa 0,0 l/m 12,1 km/h (2 Bft) W-NW 300 0 min 0,000 mm 0 W/m 5,3 C 17,0 C 12,1 km/h (2 Bft) 0,00 %
03.06.2013 14:45 17,3 C 0,0 C 0,0 C 46 % 1023,5 hPa 0,0 l/m 15,1 km/h (3 Bft) W-NW 300 0 min 0,000 mm 0 W/m 5,6 C 17,3 C 15,1 km/h (3 Bft) 0,00 %
03.06.2013 14:50 17,1 C 0,0 C 0,0 C 47 % 1023,5 hPa 0,0 l/m 7,6 km/h (2 Bft) N-NW 330 0 min 0,000 mm 0 W/m 5,7 C 17,1 C 7,6 km/h (2 Bft) 0,00 %
03.06.2013 14:55 17,5 C 0,0 C 0,0 C 46 % 1023,5 hPa 0,0 l/m 9,1 km/h (2 Bft) S 175 0 min 0,000 mm 0 W/m 5,8 C 17,5 C 9,1 km/h (2 Bft) 0,00 %
03.06.2013 15:00 17,3 C 0,0 C 0,0 C 44 % 1023,5 hPa 0,0 l/m 12,7 km/h (3 Bft) O 95 0 min 0,000 mm 0 W/m 4,9 C 17,3 C 12,7 km/h (3 Bft) 0,00 %
03.06.2013 15:05 16,9 C 0,0 C 0,0 C 45 % 1023,5 hPa 0,0 l/m 16,3 km/h (3 Bft) NO 35 0 min 0,000 mm 0 W/m 4,9 C 16,9 C 16,3 km/h (3 Bft) 0,00 %
03.06.2013 15:10 17,4 C 0,0 C 0,0 C 46 % 1022,5 hPa 0,0 l/m 14,5 km/h (3 Bft) O-NO 65 0 min 0,000 mm 0 W/m 5,7 C 17,4 C 14,5 km/h (3 Bft) 0,00 %
03.06.2013 15:15 17,3 C 0,0 C 0,0 C 45 % 1022,5 hPa 0,0 l/m 17,6 km/h (3 Bft) O-NO 75 0 min 0,000 mm 0 W/m 5,3 C 17,3 C 17,6 km/h (3 Bft) 0,00 %
03.06.2013 15:20 17,4 C 0,0 C 0,0 C 46 % 1022,5 hPa 0,0 l/m 15,7 km/h (3 Bft) N 0 0 min 0,000 mm 0 W/m 5,7 C 17,4 C 15,7 km/h (3 Bft) 0,00 %
03.06.2013 15:25 17,1 C 0,0 C 0,0 C 48 % 1022,5 hPa 0,0 l/m 7,9 km/h (2 Bft) N-NW 335 0 min 0,000 mm 0 W/m 6,0 C 17,1 C 7,9 km/h (2 Bft) 0,00 %
03.06.2013 15:30 17,5 C 0,0 C 0,0 C 47 % 1022,5 hPa 0,0 l/m 6,4 km/h (2 Bft) N-NO 30 0 min 0,000 mm 0 W/m 6,1 C 17,5 C 6,4 km/h (2 Bft) 0,00 %
03.06.2013 15:35 17,4 C 0,0 C 0,0 C 44 % 1022,5 hPa 0,0 l/m 11,8 km/h (2 Bft) O 85 0 min 0,000 mm 0 W/m 5,0 C 17,4 C 11,8 km/h (2 Bft) 0,00 %
03.06.2013 15:40 17,9 C 0,0 C 0,0 C 46 % 1022,5 hPa 0,0 l/m 9,1 km/h (2 Bft) N-NO 30 0 min 0,000 mm 0 W/m 6,1 C 17,9 C 9,1 km/h (2 Bft) 0,00 %
03.06.2013 15:45 17,1 C 0,0 C 0,0 C 46 % 1022,5 hPa 0,0 l/m 14,5 km/h (3 Bft) NW 310 0 min 0,000 mm 0 W/m 5,4 C 17,1 C 14,5 km/h (3 Bft) 0,00 %
03.06.2013 15:50 17,5 C 0,0 C 0,0 C 47 % 1022,5 hPa 0,0 l/m 13,3 km/h (3 Bft) O 85 0 min 0,000 mm 0 W/m 6,1 C 17,5 C 13,3 km/h (3 Bft) 0,00 %
03.06.2013 15:55 17,6 C 0,0 C 0,0 C 46 % 1023,5 hPa 0,0 l/m 11,2 km/h (2 Bft) SO 140 0 min 0,000 mm 0 W/m 5,8 C 17,6 C 11,2 km/h (2 Bft) 0,00 %
03.06.2013 16:00 17,4 C 0,0 C 0,0 C 45 % 1023,5 hPa 0,0 l/m 10,9 km/h (2 Bft) NO 55 0 min 0,000 mm 0 W/m 5,3 C 17,4 C 10,9 km/h (2 Bft) 0,00 %
03.06.2013 16:05 17,3 C 0,0 C 0,0 C 45 % 1023,5 hPa 0,0 l/m 10,0 km/h (2 Bft) NW 310 0 min 0,000 mm 0 W/m 5,3 C 17,3 C 10,0 km/h (2 Bft) 0,00 %
03.06.2013 16:10 16,2 C 0,0 C 0,0 C 46 % 1022,5 hPa 0,0 l/m 7,9 km/h (2 Bft) NW 320 0 min 0,000 mm 0 W/m 4,6 C 16,2 C 7,9 km/h (2 Bft) 0,00 %
03.06.2013 16:15 16,1 C 0,0 C 0,0 C 49 % 1022,5 hPa 0,0 l/m 11,5 km/h (2 Bft) SW 220 0 min 0,000 mm 0 W/m 5,4 C 16,1 C 11,5 km/h (2 Bft) 0,00 %
03.06.2013 16:20 16,6 C 0,0 C 0,0 C 47 % 1022,5 hPa 0,0 l/m 12,1 km/h (2 Bft) O-NO 75 0 min 0,000 mm 0 W/m 5,2 C 16,6 C 12,1 km/h (2 Bft) 0,00 %
03.06.2013 16:25 17,2 C 0,0 C 0,0 C 46 % 1022,5 hPa 0,0 l/m 11,2 km/h (2 Bft) O 85 0 min 0,000 mm 0 W/m 5,5 C 17,2 C 11,2 km/h (2 Bft) 0,00 %
03.06.2013 16:30 17,9 C 0,0 C 0,0 C 45 % 1022,5 hPa 0,0 l/m 12,4 km/h (3 Bft) O-NO 60 0 min 0,000 mm 0 W/m 5,8 C 17,9 C 12,4 km/h (3 Bft) 0,00 %
03.06.2013 16:35 17,5 C 0,0 C 0,0 C 47 % 1022,5 hPa 0,0 l/m 10,3 km/h (2 Bft) N-NO 25 0 min 0,000 mm 0 W/m 6,1 C 17,5 C 10,3 km/h (2 Bft) 0,00 %
03.06.2013 16:40 17,1 C 0,0 C 0,0 C 46 % 1022,5 hPa 0,0 l/m 14,2 km/h (3 Bft) N-NO 15 0 min 0,000 mm 0 W/m 5,4 C 17,1 C 14,2 km/h (3 Bft) 0,00 %
03.06.2013 16:45 17,0 C 0,0 C 0,0 C 47 % 1022,5 hPa 0,0 l/m 12,1 km/h (2 Bft) O-NO 65 0 min 0,000 mm 0 W/m 5,6 C 17,0 C 12,1 km/h (2 Bft) 0,00 %
03.06.2013 16:50 17,1 C 0,0 C 0,0 C 46 % 1022,5 hPa 0,0 l/m 12,7 km/h (3 Bft) NW 310 0 min 0,000 mm 0 W/m 5,4 C 17,1 C 12,7 km/h (3 Bft) 0,00 %
03.06.2013 16:55 16,9 C 0,0 C 0,0 C 46 % 1022,5 hPa 0,0 l/m 13,0 km/h (3 Bft) N 5 0 min 0,000 mm 0 W/m 5,2 C 16,9 C 13,0 km/h (3 Bft) 0,00 %
03.06.2013 17:00 16,9 C 0,0 C 0,0 C 47 % 1022,5 hPa 0,0 l/m 14,5 km/h (3 Bft) N-NO 15 0 min 0,000 mm 0 W/m 5,5 C 16,9 C 14,5 km/h (3 Bft) 0,00 %
03.06.2013 17:05 16,7 C 0,0 C 0,0 C 47 % 1022,5 hPa 0,0 l/m 15,4 km/h (3 Bft) S-SW 205 0 min 0,000 mm 0 W/m 5,3 C 16,7 C 15,4 km/h (3 Bft) 0,00 %
03.06.2013 17:10 16,3 C 0,0 C 0,0 C 48 % 1022,5 hPa 0,0 l/m 12,4 km/h (3 Bft) O-NO 65 0 min 0,000 mm 0 W/m 5,3 C 16,3 C 12,4 km/h (3 Bft) 0,00 %
03.06.2013 17:15 16,6 C 0,0 C 0,0 C 49 % 1022,5 hPa 0,0 l/m 8,5 km/h (2 Bft) O-SO 105 0 min 0,000 mm 0 W/m 5,8 C 16,6 C 8,5 km/h (2 Bft) 0,00 %
03.06.2013 17:20 16,8 C 0,0 C 0,0 C 48 % 1022,5 hPa 0,0 l/m 10,9 km/h (2 Bft) N 10 0 min 0,000 mm 0 W/m 5,7 C 16,8 C 10,9 km/h (2 Bft) 0,00 %
03.06.2013 17:25 16,8 C 0,0 C 0,0 C 47 % 1022,5 hPa 0,0 l/m 6,1 km/h (2 Bft) NO 40 0 min 0,000 mm 0 W/m 5,4 C 16,8 C 6,1 km/h (2 Bft) 0,00 %
03.06.2013 17:30 16,7 C 0,0 C 0,0 C 47 % 1022,5 hPa 0,0 l/m 7,9 km/h (2 Bft) N 10 0 min 0,000 mm 0 W/m 5,3 C 16,7 C 7,9 km/h (2 Bft) 0,00 %
03.06.2013 17:35 16,6 C 0,0 C 0,0 C 47 % 1022,5 hPa 0,0 l/m 9,4 km/h (2 Bft) NO 55 0 min 0,000 mm 0 W/m 5,2 C 16,6 C 9,4 km/h (2 Bft) 0,00 %
03.06.2013 17:40 16,3 C 0,0 C 0,0 C 47 % 1022,5 hPa 0,0 l/m 8,8 km/h (2 Bft) SW 230 0 min 0,000 mm 0 W/m 5,0 C 16,3 C 8,8 km/h (2 Bft) 0,00 %
03.06.2013 17:45 16,4 C 0,0 C 0,0 C 48 % 1022,5 hPa 0,0 l/m 7,9 km/h (2 Bft) W-NW 300 0 min 0,000 mm 0 W/m 5,4 C 16,4 C 7,9 km/h (2 Bft) 0,00 %
03.06.2013 17:50 15,9 C 0,0 C 0,0 C 48 % 1022,5 hPa 0,0 l/m 12,4 km/h (3 Bft) NW 310 0 min 0,000 mm 0 W/m 4,9 C 15,9 C 12,4 km/h (3 Bft) 0,00 %
03.06.2013 17:55 15,6 C 0,0 C 0,0 C 50 % 1022,5 hPa 0,0 l/m 10,3 km/h (2 Bft) N-NO 30 0 min 0,000 mm 0 W/m 5,2 C 15,6 C 10,3 km/h (2 Bft) 0,00 %
03.06.2013 18:00 15,8 C 0,0 C 0,0 C 50 % 1022,5 hPa 0,0 l/m 13,6 km/h (3 Bft) N 350 0 min 0,000 mm 0 W/m 5,4 C 15,8 C 13,6 km/h (3 Bft) 0,00 %
03.06.2013 18:05 16,0 C 0,0 C 0,0 C 50 % 1022,5 hPa 0,0 l/m 9,7 km/h (2 Bft) NO 35 0 min 0,000 mm 0 W/m 5,6 C 16,0 C 9,7 km/h (2 Bft) 0,00 %
03.06.2013 18:10 16,2 C 0,0 C 0,0 C 50 % 1022,5 hPa 0,0 l/m 8,5 km/h (2 Bft) S 185 0 min 0,000 mm 0 W/m 5,8 C 16,2 C 8,5 km/h (2 Bft) 0,00 %
03.06.2013 18:15 16,6 C 0,0 C 0,0 C 49 % 1022,5 hPa 0,0 l/m 10,0 km/h (2 Bft) N-NW 345 0 min 0,000 mm 0 W/m 5,8 C 16,6 C 10,0 km/h (2 Bft) 0,00 %
03.06.2013 18:20 16,5 C 0,0 C 0,0 C 48 % 1022,5 hPa 0,0 l/m 12,4 km/h (3 Bft) W-NW 300 0 min 0,000 mm 0 W/m 5,5 C 16,5 C 12,4 km/h (3 Bft) 0,00 %
03.06.2013 18:25 16,8 C 0,0 C 0,0 C 48 % 1021,5 hPa 0,0 l/m 4,8 km/h (1 Bft) W 280 0 min 0,000 mm 0 W/m 5,7 C 16,8 C 4,8 km/h (1 Bft) 0,00 %
03.06.2013 18:30 17,0 C 0,0 C 0,0 C 48 % 1021,5 hPa 0,0 l/m 6,7 km/h (2 Bft) SO 130 0 min 0,000 mm 0 W/m 5,9 C 17,0 C 6,7 km/h (2 Bft) 0,00 %
03.06.2013 18:35 17,0 C 0,0 C 0,0 C 47 % 1021,5 hPa 0,0 l/m 5,7 km/h (1 Bft) O 85 0 min 0,000 mm 0 W/m 5,6 C 17,0 C 5,7 km/h (1 Bft) 0,00 %
03.06.2013 18:40 16,3 C 0,0 C 0,0 C 48 % 1022,5 hPa 0,0 l/m 14,8 km/h (3 Bft) NW 325 0 min 0,000 mm 0 W/m 5,3 C 16,3 C 14,8 km/h (3 Bft) 0,00 %
03.06.2013 18:45 16,4 C 0,0 C 0,0 C 49 % 1022,5 hPa 0,0 l/m 9,4 km/h (2 Bft) SO 145 0 min 0,000 mm 0 W/m 5,7 C 16,4 C 9,4 km/h (2 Bft) 0,00 %
03.06.2013 18:50 16,5 C 0,0 C 0,0 C 49 % 1022,5 hPa 0,0 l/m 11,2 km/h (2 Bft) NW 315 0 min 0,000 mm 0 W/m 5,8 C 16,5 C 11,2 km/h (2 Bft) 0,00 %
03.06.2013 18:55 16,3 C 0,0 C 0,0 C 48 % 1022,5 hPa 0,0 l/m 10,0 km/h (2 Bft) S 190 0 min 0,000 mm 0 W/m 5,3 C 16,3 C 10,0 km/h (2 Bft) 0,00 %
03.06.2013 19:00 15,7 C 0,0 C 0,0 C 50 % 1022,5 hPa 0,0 l/m 12,1 km/h (2 Bft) N-NO 20 0 min 0,000 mm 0 W/m 5,3 C 15,7 C 12,1 km/h (2 Bft) 0,00 %
03.06.2013 19:05 15,6 C 0,0 C 0,0 C 50 % 1022,5 hPa 0,0 l/m 9,7 km/h (2 Bft) O-SO 110 0 min 0,000 mm 0 W/m 5,2 C 15,6 C 9,7 km/h (2 Bft) 0,00 %
03.06.2013 19:10 15,0 C 0,0 C 0,0 C 50 % 1021,5 hPa 0,0 l/m 10,6 km/h (2 Bft) O-SO 115 0 min 0,000 mm 0 W/m 4,7 C 15,0 C 10,6 km/h (2 Bft) 0,00 %
03.06.2013 19:15 14,6 C 0,0 C 0,0 C 52 % 1021,5 hPa 0,0 l/m 12,1 km/h (2 Bft) N-NO 30 0 min 0,000 mm 0 W/m 4,9 C 14,6 C 12,1 km/h (2 Bft) 0,00 %
03.06.2013 19:20 14,7 C 0,0 C 0,0 C 52 % 1021,5 hPa 0,0 l/m 11,5 km/h (2 Bft) W 265 0 min 0,000 mm 0 W/m 5,0 C 14,7 C 11,5 km/h (2 Bft) 0,00 %
03.06.2013 19:25 14,8 C 0,0 C 0,0 C 52 % 1022,5 hPa 0,0 l/m 15,7 km/h (3 Bft) N 5 0 min 0,000 mm 0 W/m 5,0 C 14,8 C 15,7 km/h (3 Bft) 0,00 %
03.06.2013 19:30 14,6 C 0,0 C 0,0 C 54 % 1022,5 hPa 0,0 l/m 7,9 km/h (2 Bft) O-NO 65 0 min 0,000 mm 0 W/m 5,4 C 14,6 C 7,9 km/h (2 Bft) 0,00 %
03.06.2013 19:35 14,6 C 0,0 C 0,0 C 54 % 1022,5 hPa 0,0 l/m 3,6 km/h (1 Bft) N 355 0 min 0,000 mm 0 W/m 5,4 C 14,6 C 3,6 km/h (1 Bft) 0,00 %
03.06.2013 19:40 14,2 C 0,0 C 0,0 C 54 % 1021,5 hPa 0,0 l/m 5,1 km/h (1 Bft) N-NW 335 0 min 0,000 mm 0 W/m 5,0 C 14,2 C 5,1 km/h (1 Bft) 0,00 %
03.06.2013 19:45 14,0 C 0,0 C 0,0 C 55 % 1021,5 hPa 0,0 l/m 5,7 km/h (1 Bft) NW 305 0 min 0,000 mm 0 W/m 5,1 C 14,0 C 5,7 km/h (1 Bft) 0,00 %
03.06.2013 19:50 13,8 C 0,0 C 0,0 C 56 % 1021,5 hPa 0,0 l/m 8,5 km/h (2 Bft) S 185 0 min 0,000 mm 0 W/m 5,2 C 13,8 C 8,5 km/h (2 Bft) 0,00 %
03.06.2013 19:55 13,8 C 0,0 C 0,0 C 56 % 1021,5 hPa 0,0 l/m 8,5 km/h (2 Bft) O 80 0 min 0,000 mm 0 W/m 5,2 C 13,8 C 8,5 km/h (2 Bft) 0,00 %
03.06.2013 20:00 13,4 C 0,0 C 0,0 C 56 % 1021,5 hPa 0,0 l/m 4,5 km/h (1 Bft) NW 320 0 min 0,000 mm 0 W/m 4,8 C 13,4 C 4,5 km/h (1 Bft) 0,00 %
03.06.2013 20:05 13,4 C 0,0 C 0,0 C 57 % 1021,5 hPa 0,0 l/m 8,2 km/h (2 Bft) SW 225 0 min 0,000 mm 0 W/m 5,1 C 13,4 C 8,2 km/h (2 Bft) 0,00 %
03.06.2013 20:10 13,2 C 0,0 C 0,0 C 57 % 1021,5 hPa 0,0 l/m 3,0 km/h (1 Bft) NO 45 0 min 0,000 mm 0 W/m 4,9 C 13,2 C 3,0 km/h (1 Bft) 0,00 %
03.06.2013 20:15 13,2 C 0,0 C 0,0 C 57 % 1021,5 hPa 0,0 l/m 3,9 km/h (1 Bft) N 0 0 min 0,000 mm 0 W/m 4,9 C 13,2 C 3,9 km/h (1 Bft) 0,00 %
03.06.2013 20:20 13,1 C 0,0 C 0,0 C 58 % 1021,5 hPa 0,0 l/m 5,1 km/h (1 Bft) NW 310 0 min 0,000 mm 0 W/m 5,0 C 13,1 C 5,1 km/h (1 Bft) 0,00 %
03.06.2013 20:25 13,0 C 0,0 C 0,0 C 58 % 1021,5 hPa 0,0 l/m 4,2 km/h (1 Bft) NW 305 0 min 0,000 mm 0 W/m 4,9 C 13,0 C 4,2 km/h (1 Bft) 0,00 %
03.06.2013 20:30 12,9 C 0,0 C 0,0 C 58 % 1021,5 hPa 0,0 l/m 3,6 km/h (1 Bft) W-NW 295 0 min 0,000 mm 0 W/m 4,8 C 12,9 C 3,6 km/h (1 Bft) 0,00 %
03.06.2013 20:35 12,7 C 0,0 C 0,0 C 58 % 1021,5 hPa 0,0 l/m 0,0 km/h (0 Bft) N-NW 340 0 min 0,000 mm 0 W/m 4,7 C 12,7 C 0,0 km/h (0 Bft) 0,00 %
03.06.2013 20:40 12,6 C 0,0 C 0,0 C 59 % 1021,5 hPa 0,0 l/m 3,0 km/h (1 Bft) W-NW 295 0 min 0,000 mm 0 W/m 4,8 C 12,6 C 3,0 km/h (1 Bft) 0,00 %
03.06.2013 20:45 12,6 C 0,0 C 0,0 C 59 % 1021,5 hPa 0,0 l/m 1,2 km/h (1 Bft) W-NW 300 0 min 0,000 mm 0 W/m 4,8 C 12,6 C 1,2 km/h (1 Bft) 0,00 %
03.06.2013 20:50 12,4 C 0,0 C 0,0 C 59 % 1021,5 hPa 0,0 l/m 2,4 km/h (1 Bft) W-NW 295 0 min 0,000 mm 0 W/m 4,6 C 12,4 C 2,4 km/h (1 Bft) 0,00 %
03.06.2013 20:55 12,3 C 0,0 C 0,0 C 60 % 1021,5 hPa 0,0 l/m 6,4 km/h (2 Bft) N 0 0 min 0,000 mm 0 W/m 4,8 C 12,3 C 6,4 km/h (2 Bft) 0,00 %
03.06.2013 21:00 12,2 C 0,0 C 0,0 C 60 % 1021,5 hPa 0,0 l/m 3,6 km/h (1 Bft) N-NW 345 0 min 0,000 mm 0 W/m 4,7 C 12,2 C 3,6 km/h (1 Bft) 0,00 %
03.06.2013 21:05 12,1 C 0,0 C 0,0 C 60 % 1021,5 hPa 0,0 l/m 0,0 km/h (0 Bft) N-NW 335 0 min 0,000 mm 0 W/m 4,6 C 12,1 C 0,0 km/h (0 Bft) 0,00 %
03.06.2013 21:10 12,0 C 0,0 C 0,0 C 60 % 1021,5 hPa 0,0 l/m 4,8 km/h (1 Bft) NW 325 0 min 0,000 mm 0 W/m 4,5 C 12,0 C 4,8 km/h (1 Bft) 0,00 %
03.06.2013 21:15 11,9 C 0,0 C 0,0 C 61 % 1021,5 hPa 0,0 l/m 5,7 km/h (1 Bft) NW 310 0 min 0,000 mm 0 W/m 4,6 C 11,9 C 5,7 km/h (1 Bft) 0,00 %
03.06.2013 21:20 11,8 C 0,0 C 0,0 C 61 % 1021,5 hPa 0,0 l/m 0,0 km/h (0 Bft) NW 310 0 min 0,000 mm 0 W/m 4,5 C 11,8 C 0,0 km/h (0 Bft) 0,00 %
03.06.2013 21:25 11,7 C 0,0 C 0,0 C 61 % 1022,5 hPa 0,0 l/m 0,0 km/h (0 Bft) N-NW 345 0 min 0,000 mm 0 W/m 4,4 C 11,7 C 0,0 km/h (0 Bft) 0,00 %
03.06.2013 21:30 11,5 C 0,0 C 0,0 C 62 % 1022,5 hPa 0,0 l/m 0,0 km/h (0 Bft) NW 305 0 min 0,000 mm 0 W/m 4,5 C 11,5 C 0,0 km/h (0 Bft) 0,00 %
03.06.2013 21:35 11,4 C 0,0 C 0,0 C 62 % 1022,5 hPa 0,0 l/m 3,9 km/h (1 Bft) NW 325 0 min 0,000 mm 0 W/m 4,4 C 11,4 C 3,9 km/h (1 Bft) 0,00 %
03.06.2013 21:40 11,2 C 0,0 C 0,0 C 63 % 1022,5 hPa 0,0 l/m 0,0 km/h (0 Bft) N-NO 25 0 min 0,000 mm 0 W/m 4,4 C 11,2 C 0,0 km/h (0 Bft) 0,00 %
03.06.2013 21:45 11,1 C 0,0 C 0,0 C 63 % 1022,5 hPa 0,0 l/m 0,0 km/h (0 Bft) NW 320 0 min 0,000 mm 0 W/m 4,3 C 11,1 C 0,0 km/h (0 Bft) 0,00 %
03.06.2013 21:50 11,0 C 0,0 C 0,0 C 64 % 1022,5 hPa 0,0 l/m 4,8 km/h (1 Bft) N-NW 335 0 min 0,000 mm 0 W/m 4,5 C 11,0 C 4,8 km/h (1 Bft) 0,00 %
03.06.2013 21:55 11,0 C 0,0 C 0,0 C 64 % 1021,5 hPa 0,0 l/m 2,7 km/h (1 Bft) SW 235 0 min 0,000 mm 0 W/m 4,5 C 11,0 C 2,7 km/h (1 Bft) 0,00 %
03.06.2013 22:00 11,0 C 0,0 C 0,0 C 64 % 1021,5 hPa 0,0 l/m 3,6 km/h (1 Bft) N 0 0 min 0,000 mm 0 W/m 4,5 C 11,0 C 3,6 km/h (1 Bft) 0,00 %
03.06.2013 22:05 11,0 C 0,0 C 0,0 C 64 % 1021,5 hPa 0,0 l/m 4,2 km/h (1 Bft) N-NO 15 0 min 0,000 mm 0 W/m 4,5 C 11,0 C 4,2 km/h (1 Bft) 0,00 %
03.06.2013 22:10 11,0 C 0,0 C 0,0 C 64 % 1022,5 hPa 0,0 l/m 5,7 km/h (1 Bft) NW 320 0 min 0,000 mm 0 W/m 4,5 C 11,0 C 5,7 km/h (1 Bft) 0,00 %
03.06.2013 22:15 10,9 C 0,0 C 0,0 C 64 % 1022,5 hPa 0,0 l/m 1,2 km/h (1 Bft) W-NW 300 0 min 0,000 mm 0 W/m 4,4 C 10,9 C 1,2 km/h (1 Bft) 0,00 %
03.06.2013 22:20 10,8 C 0,0 C 0,0 C 64 % 1022,5 hPa 0,0 l/m 3,3 km/h (1 Bft) W-SW 240 0 min 0,000 mm 0 W/m 4,3 C 10,8 C 3,3 km/h (1 Bft) 0,00 %
03.06.2013 22:25 10,8 C 0,0 C 0,0 C 64 % 1022,5 hPa 0,0 l/m 7,6 km/h (2 Bft) W 275 0 min 0,000 mm 0 W/m 4,3 C 10,8 C 7,6 km/h (2 Bft) 0,00 %
03.06.2013 22:30 10,9 C 0,0 C 0,0 C 64 % 1022,5 hPa 0,0 l/m 0,0 km/h (0 Bft) N-NW 330 0 min 0,000 mm 0 W/m 4,4 C 10,9 C 0,0 km/h (0 Bft) 0,00 %
03.06.2013 22:35 10,8 C 0,0 C 0,0 C 64 % 1022,5 hPa 0,0 l/m 0,0 km/h (0 Bft) NW 325 0 min 0,000 mm 0 W/m 4,3 C 10,8 C 0,0 km/h (0 Bft) 0,00 %
03.06.2013 22:40 10,7 C 0,0 C 0,0 C 64 % 1022,5 hPa 0,0 l/m 7,3 km/h (2 Bft) N 355 0 min 0,000 mm 0 W/m 4,2 C 10,7 C 7,3 km/h (2 Bft) 0,00 %
03.06.2013 22:45 10,6 C 0,0 C 0,0 C 64 % 1022,5 hPa 0,0 l/m 4,5 km/h (1 Bft) N-NW 335 0 min 0,000 mm 0 W/m 4,1 C 10,6 C 4,5 km/h (1 Bft) 0,00 %
03.06.2013 22:50 10,6 C 0,0 C 0,0 C 64 % 1022,5 hPa 0,0 l/m 3,0 km/h (1 Bft) W-SW 255 0 min 0,000 mm 0 W/m 4,1 C 10,6 C 3,0 km/h (1 Bft) 0,00 %
03.06.2013 22:55 10,6 C 0,0 C 0,0 C 64 % 1022,5 hPa 0,0 l/m 7,0 km/h (2 Bft) N-NW 335 0 min 0,000 mm 0 W/m 4,1 C 10,6 C 7,0 km/h (2 Bft) 0,00 %
03.06.2013 23:00 10,6 C 0,0 C 0,0 C 64 % 1022,5 hPa 0,0 l/m 3,9 km/h (1 Bft) N-NW 330 0 min 0,000 mm 0 W/m 4,1 C 10,6 C 3,9 km/h (1 Bft) 0,00 %
03.06.2013 23:05 10,6 C 0,0 C 0,0 C 64 % 1022,5 hPa 0,0 l/m 5,7 km/h (1 Bft) N 5 0 min 0,000 mm 0 W/m 4,1 C 10,6 C 5,7 km/h (1 Bft) 0,00 %
03.06.2013 23:10 10,6 C 0,0 C 0,0 C 64 % 1022,5 hPa 0,0 l/m 6,7 km/h (2 Bft) S-SO 165 0 min 0,000 mm 0 W/m 4,1 C 10,6 C 6,7 km/h (2 Bft) 0,00 %
03.06.2013 23:15 10,6 C 0,0 C 0,0 C 64 % 1022,5 hPa 0,0 l/m 2,4 km/h (1 Bft) NW 325 0 min 0,000 mm 0 W/m 4,1 C 10,6 C 2,4 km/h (1 Bft) 0,00 %
03.06.2013 23:20 10,6 C 0,0 C 0,0 C 64 % 1022,5 hPa 0,0 l/m 9,4 km/h (2 Bft) N-NW 340 0 min 0,000 mm 0 W/m 4,1 C 10,6 C 9,4 km/h (2 Bft) 0,00 %
03.06.2013 23:25 10,5 C 0,0 C 0,0 C 64 % 1022,5 hPa 0,0 l/m 8,8 km/h (2 Bft) N-NW 330 0 min 0,000 mm 0 W/m 4,0 C 10,5 C 8,8 km/h (2 Bft) 0,00 %
03.06.2013 23:30 10,5 C 0,0 C 0,0 C 65 % 1022,5 hPa 0,0 l/m 7,9 km/h (2 Bft) NW 315 0 min 0,000 mm 0 W/m 4,2 C 10,5 C 7,9 km/h (2 Bft) 0,00 %
03.06.2013 23:35 10,5 C 0,0 C 0,0 C 64 % 1022,5 hPa 0,0 l/m 6,1 km/h (2 Bft) N-NO 20 0 min 0,000 mm 0 W/m 4,0 C 10,5 C 6,1 km/h (2 Bft) 0,00 %
03.06.2013 23:40 10,3 C 0,0 C 0,0 C 65 % 1022,5 hPa 0,0 l/m 6,7 km/h (2 Bft) N-NW 340 0 min 0,000 mm 0 W/m 4,0 C 10,3 C 6,7 km/h (2 Bft) 0,00 %
03.06.2013 23:45 10,2 C 0,0 C 0,0 C 65 % 1022,5 hPa 0,0 l/m 3,0 km/h (1 Bft) W 275 0 min 0,000 mm 0 W/m 3,9 C 10,2 C 3,0 km/h (1 Bft) 0,00 %
03.06.2013 23:50 10,1 C 0,0 C 0,0 C 66 % 1022,5 hPa 0,0 l/m 4,8 km/h (1 Bft) O-NO 60 0 min 0,000 mm 0 W/m 4,0 C 10,1 C 4,8 km/h (1 Bft) 0,00 %
03.06.2013 23:55 10,0 C 0,0 C 0,0 C 66 % 1021,5 hPa 0,0 l/m 3,9 km/h (1 Bft) SO 135 0 min 0,000 mm 0 W/m 3,9 C 10,0 C 3,9 km/h (1 Bft) 0,00 %
_ Min-Zeit 05:30 00:00 00:00 15:00 18:25 - 00:30 - - - - - 05:00 06:50 00:30 00:00
Minimum _ 6,7 C 0,0 C 0,0 C 44 % 1021,5 hPa - 0,0 km/h (0 Bft) - - - - - 0,9 C 3,9 C 0,0 km/h (0 Bft) 0,00 %
_ Max-Zeit 15:40 00:00 00:00 06:00 08:55 00:00 08:45 - - 00:00 00:00 00:00 14:20 15:40 08:45 00:00
Maximum _ 17,9 C 0,0 C 0,0 C 68 % 1024,5 hPa 0,0 l/m 19,4 km/h
O (3 Bft)
- - 0 min 0,000 mm 0 W/m 6,6 C 17,9 C 19,4 km/h
O (3 Bft)
0,00 %
Durchschnitt _ 11,7 C 0,0 C 0,0 C 58 % 1023,1 hPa #0,0 l/m 8,9 km/h (2 Bft) NW - #0 min. #0,000 mm 0 W/m 3,6 C 11,1 C 8,9 km/h (2 Bft) 0,00 %
Wetterstation Gdesweiler